TimeCDT,TemperatureF,Dew PointF,Humidity,Sea Level PressureIn,VisibilityMPH,Wind Direction,Wind SpeedMPH,Gust SpeedMPH,PrecipitationIn,Events,Conditions,WindDirDegrees,DateUTC
12:53 AM,69.8,66.2,88,30.10,9.0,SSE,9.2,-,N/A,,Partly Cloudy,160,2012-10-12 05:53:00
1:53 AM,70.0,66.0,87,30.07,7.0,South,10.4,-,N/A,,Clear,170,2012-10-12 06:53:00
2:53 AM,69.8,66.2,88,30.08,6.0,South,16.1,-,N/A,,Clear,170,2012-10-12 07:53:00
3:53 AM,69.1,66.9,93,30.04,6.0,South,12.7,-,N/A,,Clear,180,2012-10-12 08:53:00
4:53 AM,69.1,66.9,93,30.03,6.0,South,15.0,-,N/A,,Clear,180,2012-10-12 09:53:00
5:46 AM,69.8,66.2,88,30.08,8.0,South,17.3,-,N/A,,Mostly Cloudy,190,2012-10-12 10:46:00
5:53 AM,70.0,66.9,90,30.04,9.0,South,17.3,-,N/A,,Overcast,190,2012-10-12 10:53:00
6:53 AM,71.1,68.0,90,30.08,10.0,SSW,15.0,-,N/A,,Overcast,200,2012-10-12 11:53:00
7:20 AM,71.6,66.2,83,30.15,5.0,NW,10.4,21.9,0.00,Rain-Thunderstorm,Light Rain,310,2012-10-12 12:20:00
7:34 AM,69.8,66.2,88,30.16,2.5,NW,8.1,-,0.02,Rain-Thunderstorm,Light Rain,320,2012-10-12 12:34:00
7:42 AM,69.8,66.2,88,30.16,2.5,WNW,11.5,-,0.03,Rain-Thunderstorm,Thunderstorms and Rain,300,2012-10-12 12:42:00
7:53 AM,66.9,64.9,93,30.12,1.0,West,8.1,-,0.06,Rain-Thunderstorm,Heavy Thunderstorms and Rain,260,2012-10-12 12:53:00
8:00 AM,66.2,64.4,94,30.15,0.8,Calm,Calm,-,0.02,Rain-Thunderstorm,Heavy Thunderstorms and Rain,0,2012-10-12 13:00:00
8:04 AM,66.2,64.4,94,30.15,1.0,Calm,Calm,-,0.03,Rain-Thunderstorm,Heavy Thunderstorms and Rain,0,2012-10-12 13:04:00
8:12 AM,66.2,62.6,88,30.16,3.0,SSW,5.8,-,0.05,Rain-Thunderstorm,Light Rain,200,2012-10-12 13:12:00
8:29 AM,66.2,64.4,94,30.16,2.5,Calm,Calm,-,0.10,Rain,Light Rain,0,2012-10-12 13:29:00
8:41 AM,66.2,64.4,94,30.16,2.5,SSE,5.8,-,N/A,Rain,Light Rain,160,2012-10-12 13:41:00
8:48 AM,66.2,64.4,94,30.16,6.0,SSE,4.6,-,N/A,Rain,Light Rain,160,2012-10-12 13:48:00
8:53 AM,66.2,64.4,94,30.16,8.0,South,5.8,-,N/A,,Overcast,170,2012-10-12 13:53:00
8:55 AM,66.2,64.4,94,30.16,9.0,SSE,5.8,-,N/A,,Overcast,160,2012-10-12 13:55:00
9:53 AM,66.9,64.9,93,30.15,2.0,SSW,5.8,-,0.12,Rain,Rain,200,2012-10-12 14:53:00
10:08 AM,68.0,64.4,88,30.16,7.0,SSE,5.8,-,0.03,Rain,Light Rain,160,2012-10-12 15:08:00
10:53 AM,71.1,66.0,84,30.13,10.0,South,6.9,-,0.11,,Partly Cloudy,190,2012-10-12 15:53:00
11:23 AM,73.4,66.2,78,30.16,10.0,SSW,8.1,-,0.04,,Mostly Cloudy,200,2012-10-12 16:23:00
11:53 AM,73.0,66.0,79,30.13,10.0,South,8.1,-,0.08,,Overcast,170,2012-10-12 16:53:00
12:39 PM,66.2,62.6,88,30.17,9.0,North,12.7,-,0.04,,Overcast,350,2012-10-12 17:39:00
12:53 PM,66.0,62.1,87,30.14,8.0,North,10.4,-,0.06,,Overcast,350,2012-10-12 17:53:00
1:27 PM,64.4,62.6,94,30.15,1.0,North,5.8,-,0.03,Rain,Light Rain,10,2012-10-12 18:27:00
1:53 PM,66.0,64.0,93,30.12,1.0,North,6.9,-,0.05,Rain,Light Rain,10,2012-10-12 18:53:00
2:03 PM,64.4,64.4,100,30.14,1.0,North,5.8,-,0.00,,Overcast,10,2012-10-12 19:03:00
2:53 PM,66.0,64.9,96,30.10,0.5,NE,6.9,-,0.01,,Overcast,40,2012-10-12 19:53:00
3:32 PM,68.0,66.2,94,30.11,1.5,East,6.9,-,N/A,,Overcast,80,2012-10-12 20:32:00
3:53 PM,69.1,68.0,96,30.07,2.5,East,8.1,-,N/A,,Overcast,90,2012-10-12 20:53:00
4:00 PM,69.8,68.0,94,30.10,2.5,East,9.2,-,N/A,,Overcast,80,2012-10-12 21:00:00
4:53 PM,71.6,69.8,94,30.08,6.0,East,11.5,-,N/A,,Overcast,100,2012-10-12 21:53:00
5:11 PM,71.6,68.0,88,30.08,6.0,East,11.5,-,N/A,,Scattered Clouds,100,2012-10-12 22:11:00
5:53 PM,72.0,68.0,87,30.04,7.0,East,11.5,-,N/A,,Scattered Clouds,90,2012-10-12 22:53:00
6:15 PM,71.6,68.0,88,30.07,7.0,East,13.8,-,N/A,,Mostly Cloudy,100,2012-10-12 23:15:00
6:28 PM,71.6,68.0,88,30.07,7.0,ESE,12.7,-,N/A,,Mostly Cloudy,110,2012-10-12 23:28:00
6:44 PM,71.6,66.2,83,30.07,8.0,ESE,10.4,-,0.00,Rain,Light Rain,110,2012-10-12 23:44:00
6:53 PM,70.0,66.9,90,30.04,10.0,ESE,11.5,-,0.00,,Overcast,110,2012-10-12 23:53:00
7:53 PM,70.0,66.0,87,30.04,10.0,SE,12.7,-,N/A,,Clear,140,2012-10-13 00:53:00
8:53 PM,69.1,66.0,90,30.03,9.0,SE,13.8,-,0.00,,Clear,140,2012-10-13 01:53:00
9:53 PM,70.0,64.9,84,30.02,10.0,SE,12.7,-,N/A,,Clear,140,2012-10-13 02:53:00
10:53 PM,70.0,64.9,84,29.99,9.0,SSE,15.0,-,N/A,,Clear,160,2012-10-13 03:53:00
11:53 PM,73.0,64.9,76,30.00,10.0,South,18.4,-,N/A,,Clear,180,2012-10-13 04:53:00